| time (UTC) | temp C | wind direction | speed KPH | gust KPH | rain 1hr cm | rain 24hr cm | rain mn cm | humidity % | barometer mb |
| 20260505084013 | 18 | 171 | 9.7 | 14.5 | 0.08 | 6.22 | 6.22 | 91 | 1011.2 |
| 20260505083509 | 18 | 191 | 11.3 | 17.7 | 0.08 | 6.22 | 6.22 | 90 | 1011.2 |
| 20260505083023 | 18 | 245 | 19.3 | 25.7 | 0.08 | 6.22 | 6.22 | 90 | 1011.2 |
| 20260505082509 | 18 | 72 | 14.5 | 19.3 | 0.08 | 6.22 | 6.22 | 91 | 1011.2 |
| 20260505082013 | 18 | 153 | 17.7 | 22.5 | 0.08 | 6.22 | 6.22 | 91 | 1011.2 |
| 20260505081513 | 18 | 162 | 22.5 | 37.0 | 0.08 | 6.22 | 6.22 | 91 | 1010.8 |
| 20260505081014 | 18 | 128 | 11.3 | 14.5 | 0.08 | 6.22 | 6.22 | 91 | 1011.2 |
| 20260505080508 | 18 | 165 | 11.3 | 14.5 | 0.00 | 6.15 | 6.15 | 91 | 1010.8 |
| 20260505080032 | 18 | 139 | 14.5 | 17.7 | 0.15 | 6.15 | 6.15 | 91 | 1010.8 |
| 20260505075509 | 18 | 143 | 9.7 | 12.9 | 0.15 | 6.15 | 6.15 | 91 | 1010.8 |
| 20260505075013 | 18 | 165 | 11.3 | 17.7 | 0.15 | 6.15 | 6.15 | 91 | 1010.8 |
| 20260505074513 | 17 | 153 | 14.5 | 17.7 | 0.15 | 6.15 | 6.15 | 91 | 1011.2 |
| 20260505074012 | 17 | 157 | 19.3 | 25.7 | 0.15 | 6.15 | 6.15 | 91 | 1010.8 |
| 20260505073509 | 17 | 149 | 12.9 | 20.9 | 0.15 | 6.15 | 6.15 | 91 | 1010.8 |
| 20260505073024 | 17 | 163 | 14.5 | 25.7 | 0.03 | 6.02 | 6.02 | 92 | 1010.8 |
| 20260505072509 | 17 | 173 | 9.7 | 11.3 | 0.03 | 6.02 | 6.02 | 93 | 1010.8 |
| 20260505072012 | 17 | 163 | 17.7 | 19.3 | 0.03 | 6.02 | 6.02 | 93 | 1011.2 |
| 20260505071512 | 17 | 285 | 17.7 | 27.4 | 0.03 | 6.02 | 6.02 | 93 | 1011.2 |
| 20260505071013 | 17 | 174 | 17.7 | 20.9 | 0.03 | 6.02 | 6.02 | 93 | 1010.8 |
| 20260505070509 | 17 | 172 | 14.5 | 20.9 | 0.00 | 5.99 | 5.99 | 93 | 1010.8 |
| 20260505070033 | 17 | 141 | 19.3 | 27.4 | 0.25 | 5.99 | 5.99 | 93 | 1011.2 |
| 20260505065509 | 17 | 195 | 9.7 | 14.5 | 0.25 | 5.99 | 5.99 | 93 | 1011.2 |
| 20260505065013 | 17 | 154 | 24.1 | 32.2 | 0.25 | 5.99 | 5.99 | 93 | 1010.5 |
| 20260505064512 | 17 | 138 | 30.6 | 38.6 | 0.25 | 5.99 | 5.99 | 93 | 1011.2 |
| 20260505064013 | 17 | 124 | 27.4 | 32.2 | 0.20 | 5.97 | 5.97 | 94 | 1010.8 |
| 20260505063510 | 17 | 171 | 16.1 | 25.7 | 0.20 | 5.97 | 5.97 | 94 | 1010.5 |
| 20260505063023 | 17 | 135 | 20.9 | 32.2 | 0.20 | 5.97 | 5.97 | 94 | 1010.8 |
| 20260505062509 | 17 | 186 | 20.9 | 33.8 | 0.20 | 5.97 | 5.97 | 94 | 1010.5 |
| 20260505062013 | 17 | 148 | 30.6 | 35.4 | 0.08 | 5.84 | 5.84 | 94 | 1010.8 |
| 20260505061512 | 17 | 162 | 33.8 | 38.6 | 0.08 | 5.82 | 5.82 | 94 | 1010.8 |
| 20260505061012 | 17 | 177 | 22.5 | 30.6 | 0.05 | 5.79 | 5.79 | 94 | 1011.2 |
| 20260505060509 | 17 | 198 | 17.7 | 22.5 | 0.00 | 5.77 | 5.77 | 94 | 1010.8 |
| 20260505060032 | 17 | 187 | 22.5 | 38.6 | 0.25 | 5.77 | 5.77 | 94 | 1011.2 |
| 20260505055508 | 17 | 145 | 25.7 | 33.8 | 0.25 | 5.74 | 5.74 | 94 | 1010.8 |
| 20260505055012 | 17 | 128 | 25.7 | 32.2 | 0.25 | 5.74 | 5.74 | 94 | 1010.8 |
| 20260505054512 | 17 | 155 | 19.3 | 25.7 | 0.25 | 5.74 | 5.74 | 94 | 1011.2 |
| 20260505054013 | 17 | 172 | 6.4 | 11.3 | 0.13 | 5.61 | 5.61 | 94 | 1010.8 |
| 20260505053509 | 17 | 108 | 14.5 | 22.5 | 0.13 | 5.61 | 5.61 | 94 | 1010.5 |
| 20260505053022 | 17 | 135 | 25.7 | 32.2 | 0.00 | 5.49 | 5.49 | 94 | 1010.8 |
| 20260505052509 | 17 | 147 | 14.5 | 19.3 | 0.00 | 5.49 | 5.49 | 95 | 1010.5 |
| 20260505052012 | 17 | 148 | 22.5 | 30.6 | 0.00 | 5.49 | 5.49 | 95 | 1010.8 |
| 20260505051512 | 17 | 152 | 25.7 | 33.8 | 0.00 | 5.49 | 5.49 | 95 | 1010.8 |
| 20260505051013 | 17 | 166 | 30.6 | 45.1 | 0.00 | 5.49 | 5.49 | 95 | 1010.5 |
| 20260505050509 | 17 | 118 | 17.7 | 24.1 | 0.00 | 5.49 | 5.49 | 95 | 1010.8 |
| 20260505041512 | 17 | 123 | 25.7 | 30.6 | 0.76 | 3.10 | 3.10 | 95 | 1010.2 |
| 20260505041011 | 17 | 185 | 35.4 | 49.9 | 0.56 | 2.90 | 2.90 | 95 | 1010.2 |
| 20260505040510 | 17 | 134 | 35.4 | 41.8 | 0.38 | 2.72 | 2.72 | 95 | 1010.2 |
| 20260505040031 | 17 | 155 | 25.7 | 45.1 | 1.88 | 2.34 | 2.34 | 95 | 1010.2 |
| 20260505035509 | 17 | 171 | 17.7 | 27.4 | 1.70 | 2.16 | 2.16 | 95 | 1010.5 |
| 20260505035012 | 17 | 128 | 16.1 | 24.1 | 1.14 | 1.60 | 1.60 | 95 | 1010.2 |
| 20260505034512 | 17 | 169 | 11.3 | 17.7 | 1.14 | 1.60 | 1.60 | 95 | 1010.2 |
| 20260505034012 | 17 | 182 | 24.1 | 33.8 | 1.09 | 1.52 | 1.52 | 95 | 1010.5 |
| 20260505033509 | 17 | 137 | 25.7 | 35.4 | 1.07 | 1.52 | 1.52 | 95 | 1010.8 |
| 20260505033021 | 17 | 146 | 35.4 | 41.8 | 1.07 | 1.50 | 1.50 | 95 | 1010.8 |
| 20260505032509 | 17 | 155 | 22.5 | 35.4 | 0.76 | 1.22 | 1.22 | 95 | 1010.8 |
| 20260505032012 | 17 | 166 | 17.7 | 30.6 | 0.64 | 1.07 | 1.07 | 95 | 1011.2 |
| 20260505031512 | 17 | 150 | 35.4 | 48.3 | 0.56 | 1.02 | 1.02 | 95 | 1010.8 |
| 20260505031012 | 17 | 117 | 25.7 | 30.6 | 0.33 | 0.79 | 0.79 | 95 | 1010.8 |
| 20260505030509 | 17 | 146 | 9.7 | 17.7 | 0.10 | 0.56 | 0.56 | 95 | 1010.8 |
| 20260505030031 | 17 | 135 | 17.7 | 27.4 | 0.23 | 0.46 | 0.46 | 95 | 1010.5 |
| 20260505025508 | 17 | 143 | 20.9 | 27.4 | 0.13 | 0.36 | 0.36 | 95 | 1010.8 |
| 20260505025012 | 17 | 182 | 20.9 | 27.4 | 0.13 | 0.36 | 0.36 | 95 | 1010.8 |
| 20260505024512 | 17 | 141 | 22.5 | 27.4 | 0.13 | 0.36 | 0.36 | 94 | 1010.8 |
| 20260505024012 | 17 | 155 | 22.5 | 25.7 | 0.13 | 0.36 | 0.36 | 94 | 1011.2 |
| 20260505023509 | 17 | 120 | 16.1 | 24.1 | 0.13 | 0.36 | 0.36 | 94 | 1011.2 |
| 20260505023021 | 17 | 161 | 19.3 | 24.1 | 0.13 | 0.36 | 0.36 | 94 | 1011.2 |
| 20260505022509 | 17 | 139 | 17.7 | 22.5 | 0.13 | 0.33 | 0.33 | 94 | 1011.2 |
| 20260505022012 | 17 | 143 | 24.1 | 33.8 | 0.13 | 0.33 | 0.33 | 94 | 1011.2 |
| 20260505021512 | 17 | 143 | 16.1 | 22.5 | 0.03 | 0.25 | 0.25 | 94 | 1011.2 |
| 20260505021012 | 17 | 149 | 22.5 | 27.4 | 0.00 | 0.20 | 0.20 | 94 | 1011.2 |
| 20260505020508 | 17 | 144 | 19.3 | 27.4 | 0.00 | 0.20 | 0.20 | 94 | 1011.5 |
| 20260505020030 | 17 | 144 | 25.7 | 33.8 | 0.10 | 0.20 | 0.20 | 94 | 1011.5 |
| 20260505015013 | 17 | 152 | 20.9 | 25.7 | 0.08 | 0.20 | 0.20 | 94 | 1011.5 |
| 20260505014511 | 17 | 162 | 20.9 | 30.6 | 0.08 | 0.20 | 0.20 | 94 | 1011.5 |
| 20260505014012 | 17 | 141 | 25.7 | 27.4 | 0.05 | 0.18 | 0.18 | 94 | 1011.5 |
| 20260505013509 | 17 | 137 | 19.3 | 30.6 | 0.05 | 0.18 | 0.18 | 94 | 1011.5 |
| 20260505013021 | 17 | 149 | 22.5 | 32.2 | 0.05 | 0.18 | 0.18 | 94 | 1011.9 |
| 20260505012508 | 17 | 148 | 25.7 | 33.8 | 0.05 | 0.18 | 0.18 | 94 | 1011.9 |
| 20260505012012 | 17 | 152 | 19.3 | 27.4 | 0.05 | 0.18 | 0.18 | 94 | 1011.9 |
| 20260505011012 | 17 | 153 | 19.3 | 24.1 | 0.00 | 0.13 | 0.13 | 94 | 1011.9 |
| 20260505010509 | 17 | 139 | 17.7 | 22.5 | 0.00 | 0.13 | 0.13 | 94 | 1012.2 |
| 20260505010031 | 17 | 112 | 9.7 | 17.7 | 0.05 | 0.13 | 0.13 | 94 | 1011.9 |
| 20260505005012 | 17 | 160 | 17.7 | 25.7 | 0.05 | 0.13 | 0.13 | 94 | 1012.2 |
| 20260505004511 | 17 | 97 | 17.7 | 19.3 | 0.05 | 0.13 | 0.13 | 94 | 1012.2 |
| 20260505004012 | 17 | 171 | 19.3 | 22.5 | 0.05 | 0.13 | 0.13 | 94 | 1012.5 |
| 20260505003509 | 17 | 248 | 11.3 | 19.3 | 0.05 | 0.13 | 0.13 | 94 | 1012.5 |
| 20260505003021 | 17 | 130 | 22.5 | 27.4 | 0.03 | 0.10 | 0.10 | 94 | 1012.5 |
| 20260505002509 | 17 | 170 | 14.5 | 19.3 | 0.00 | 0.10 | 0.10 | 94 | 1012.5 |
| 20260505002012 | 17 | 155 | 12.9 | 17.7 | 0.00 | 0.08 | 0.08 | 94 | 1012.5 |
| 20260505001512 | 17 | 162 | 19.3 | 22.5 | 0.00 | 0.08 | 0.08 | 94 | 1012.5 |
| 20260505001012 | 17 | 145 | 17.7 | 27.4 | 0.00 | 0.08 | 0.08 | 94 | 1012.5 |
| 20260505000509 | 17 | 142 | 9.7 | 14.5 | 0.00 | 0.08 | 0.08 | 94 | 1012.9 |
| 20260505000033 | 17 | 158 | 12.9 | 17.7 | 0.03 | 0.08 | 0.08 | 94 | 1012.9 |
| 20260504235509 | 17 | 185 | 12.9 | 17.7 | 0.03 | 0.08 | 0.08 | 94 | 1012.9 |
| 20260504235012 | 17 | 194 | 9.7 | 11.3 | 0.03 | 0.08 | 0.08 | 94 | 1012.9 |
| 20260504234512 | 17 | 145 | 16.1 | 24.1 | 0.03 | 0.08 | 0.08 | 94 | 1012.9 |
| 20260504234013 | 17 | 153 | 14.5 | 19.3 | 0.03 | 0.08 | 0.08 | 94 | 1013.2 |
| 20260504233509 | 17 | 210 | 14.5 | 19.3 | 0.03 | 0.08 | 0.08 | 94 | 1013.2 |
| 20260504233022 | 17 | 117 | 8.0 | 11.3 | 0.03 | 0.08 | 0.08 | 94 | 1013.2 |
| 20260504232509 | 17 | 132 | 16.1 | 24.1 | 0.03 | 0.08 | 0.08 | 94 | 1013.2 |
| 20260504231511 | 17 | 189 | 14.5 | 19.3 | 0.00 | 0.05 | 0.05 | 93 | 1013.6 |
| 20260504231012 | 17 | 125 | 9.7 | 14.5 | 0.00 | 0.05 | 0.05 | 93 | 1013.6 |
| 20260504230508 | 17 | 148 | 17.7 | 20.9 | 0.00 | 0.05 | 0.05 | 93 | 1013.6 |
| 20260504230033 | 17 | 177 | 9.7 | 14.5 | 0.05 | 0.05 | 0.05 | 93 | 1013.6 |
| 20260504225509 | 17 | 136 | 16.1 | 20.9 | 0.05 | 0.05 | 0.05 | 93 | 1013.9 |
| 20260504225012 | 17 | 139 | 17.7 | 19.3 | 0.05 | 0.05 | 0.05 | 93 | 1013.9 |
| 20260504224012 | 17 | 137 | 12.9 | 17.7 | 0.05 | 0.05 | 0.05 | 93 | 1013.9 |
| 20260504223509 | 17 | 142 | 11.3 | 14.5 | 0.03 | 0.03 | 0.03 | 93 | 1013.9 |
| 20260504223023 | 17 | 175 | 12.9 | 19.3 | 0.03 | 0.03 | 0.03 | 92 | 1014.2 |
| 20260504222508 | 17 | 154 | 4.8 | 9.7 | 0.03 | 0.03 | 0.03 | 92 | 1013.9 |
| 20260504222012 | 17 | 170 | 14.5 | 19.3 | 0.03 | 0.03 | 0.03 | 92 | 1014.2 |
| 20260504221511 | 17 | 159 | 9.7 | 14.5 | 0.03 | 0.03 | 0.03 | 92 | 1014.2 |
| 20260504221013 | 17 | 157 | 4.8 | 6.4 | 0.03 | 0.03 | 0.03 | 91 | 1014.2 |
| 20260504220509 | 17 | 135 | 8.0 | 17.7 | 0.00 | 0.00 | 0.00 | 91 | 1014.2 |
| 20260504220032 | 17 | 195 | 6.4 | 11.3 | 0.00 | 3.71 | 3.71 | 90 | 1014.2 |
| 20260504215509 | 17 | 138 | 9.7 | 14.5 | 0.00 | 3.71 | 3.71 | 90 | 1014.2 |
| 20260504215012 | 17 | 134 | 9.7 | 12.9 | 0.00 | 3.71 | 3.71 | 89 | 1014.6 |
| 20260504214512 | 17 | 167 | 19.3 | 24.1 | 0.00 | 3.71 | 3.71 | 88 | 1014.2 |
| 20260504214012 | 17 | 136 | 14.5 | 25.7 | 0.00 | 3.71 | 3.71 | 88 | 1014.6 |
| 20260504213508 | 17 | 135 | 9.7 | 14.5 | 0.00 | 3.71 | 3.71 | 88 | 1014.6 |
| 20260504213021 | 17 | 126 | 14.5 | 17.7 | 0.00 | 3.71 | 3.71 | 87 | 1014.6 |
| 20260504212513 | 17 | 192 | 8.0 | 11.3 | 0.00 | 3.71 | 3.71 | 87 | 1014.9 |
| 20260504211512 | 17 | 133 | 17.7 | 24.1 | 0.00 | 3.71 | 3.71 | 87 | 1014.6 |
| 20260504211012 | 17 | 145 | 9.7 | 14.5 | 0.00 | 3.71 | 3.71 | 87 | 1014.9 |
| 20260504210031 | 17 | 164 | 11.3 | 17.7 | 0.00 | 3.71 | 3.71 | 87 | 1014.6 |
| 20260504205510 | 17 | 138 | 14.5 | 17.7 | 0.00 | 3.71 | 3.71 | 87 | 1014.6 |
| 20260504205012 | 17 | 153 | 11.3 | 14.5 | 0.00 | 3.71 | 3.71 | 87 | 1014.9 |
| 20260504204512 | 17 | 124 | 8.0 | 14.5 | 0.00 | 3.71 | 3.71 | 87 | 1014.9 |
| 20260504204011 | 17 | 62 | 11.3 | 17.7 | 0.00 | 3.71 | 3.71 | 87 | 1014.6 |
| 20260504202509 | 17 | 135 | 11.3 | 14.5 | 0.00 | 3.71 | 3.71 | 86 | 1014.6 |
| 20260504202014 | 17 | 113 | 11.3 | 17.7 | 0.00 | 3.71 | 3.71 | 87 | 1014.9 |
| 20260504201512 | 17 | 143 | 9.7 | 14.5 | 0.00 | 3.71 | 3.71 | 87 | 1014.6 |
| 20260504201013 | 17 | 117 | 12.9 | 17.7 | 0.00 | 3.71 | 3.71 | 86 | 1014.9 |
| 20260504200509 | 17 | 123 | 11.3 | 17.7 | 0.00 | 3.71 | 3.71 | 86 | 1014.6 |
| 20260504200029 | 17 | 142 | 6.4 | 9.7 | 0.00 | 3.71 | 3.71 | 86 | 1014.6 |
| 20260504195509 | 17 | 166 | 14.5 | 19.3 | 0.00 | 3.71 | 3.71 | 86 | 1014.9 |
| 20260504195012 | 17 | 166 | 11.3 | 14.5 | 0.00 | 3.71 | 3.71 | 85 | 1014.9 |
| 20260504194512 | 17 | 140 | 14.5 | 17.7 | 0.00 | 3.71 | 3.71 | 85 | 1014.6 |
| 20260504194014 | 17 | 117 | 9.7 | 14.5 | 0.00 | 3.71 | 3.71 | 85 | 1014.6 |
| 20260504193510 | 17 | 133 | 12.9 | 17.7 | 0.00 | 3.71 | 3.71 | 85 | 1014.9 |
| 20260504193022 | 17 | 141 | 11.3 | 14.5 | 0.00 | 3.71 | 3.71 | 86 | 1014.9 |
| 20260504192509 | 17 | 181 | 14.5 | 19.3 | 0.00 | 3.71 | 3.71 | 85 | 1014.6 |
| 20260504192013 | 17 | 162 | 12.9 | 14.5 | 0.00 | 3.71 | 3.71 | 85 | 1014.9 |
| 20260504185509 | 17 | 161 | 9.7 | 12.9 | 0.00 | 3.71 | 3.71 | 86 | 1014.6 |
| 20260504185013 | 17 | 166 | 4.8 | 8.0 | 0.00 | 3.71 | 3.71 | 86 | 1014.9 |
| 20260504184515 | 17 | 129 | 9.7 | 14.5 | 0.00 | 3.71 | 3.71 | 86 | 1014.6 |
| 20260504184013 | 17 | 135 | 3.2 | 6.4 | 0.00 | 3.71 | 3.71 | 85 | 1014.6 |
| 20260504183509 | 17 | 148 | 8.0 | 11.3 | 0.00 | 3.71 | 3.71 | 85 | 1014.9 |
| 20260504183023 | 17 | 157 | 9.7 | 17.7 | 0.00 | 3.71 | 3.71 | 85 | 1014.6 |
| 20260504182509 | 17 | 138 | 12.9 | 19.3 | 0.00 | 3.71 | 3.71 | 85 | 1014.9 |
| 20260504182013 | 17 | 158 | 11.3 | 12.9 | 0.00 | 3.71 | 3.71 | 84 | 1014.6 |
| 20260504181513 | 17 | 197 | 11.3 | 17.7 | 0.00 | 3.71 | 3.71 | 84 | 1014.6 |
| 20260504181014 | 17 | 154 | 11.3 | 17.7 | 0.00 | 3.71 | 3.71 | 84 | 1014.6 |
| 20260504180510 | 17 | 135 | 12.9 | 17.7 | 0.00 | 3.71 | 3.71 | 85 | 1014.6 |
| 20260504175509 | 17 | 131 | 19.3 | 20.9 | 0.00 | 3.71 | 3.71 | 85 | 1014.6 |
| 20260504175013 | 17 | 158 | 17.7 | 20.9 | 0.00 | 3.71 | 3.71 | 85 | 1014.6 |
| 20260504174513 | 17 | 130 | 9.7 | 12.9 | 0.00 | 3.71 | 3.71 | 85 | 1014.6 |
| 20260504174013 | 17 | 196 | 19.3 | 20.9 | 0.00 | 3.71 | 3.71 | 85 | 1014.9 |
| 20260504173509 | 17 | 158 | 9.7 | 17.7 | 0.00 | 3.71 | 3.71 | 85 | 1014.9 |
| 20260504173023 | 17 | 154 | 14.5 | 17.7 | 0.00 | 3.71 | 3.71 | 85 | 1014.9 |
| 20260504172509 | 17 | 230 | 12.9 | 19.3 | 0.00 | 3.71 | 3.71 | 85 | 1014.9 |
| 20260504172013 | 17 | 137 | 11.3 | 14.5 | 0.00 | 3.71 | 3.71 | 84 | 1014.9 |
| 20260504171513 | 17 | 178 | 14.5 | 17.7 | 0.00 | 3.71 | 3.71 | 84 | 1014.9 |
| 20260504171013 | 17 | 154 | 24.1 | 32.2 | 0.00 | 3.71 | 3.71 | 83 | 1014.9 |
| 20260504170508 | 17 | 163 | 6.4 | 11.3 | 0.00 | 3.71 | 3.71 | 83 | 1014.9 |
| 20260504151014 | 17 | 150 | 20.9 | 25.7 | 0.13 | 3.53 | 3.53 | 79 | 1015.6 |
| 20260504150510 | 17 | 134 | 19.3 | 25.7 | 0.00 | 3.40 | 3.40 | 78 | 1015.6 |
| 20260504141013 | 18 | 169 | 14.5 | 25.7 | 0.30 | 2.82 | 2.82 | 77 | 1015.6 |
| 20260504140509 | 18 | 152 | 16.1 | 24.1 | 0.13 | 2.62 | 2.62 | 78 | 1015.6 |
| 20260504130509 | 18 | 132 | 20.9 | 27.4 | 0.00 | 1.27 | 1.27 | 79 | 1015.9 |
| 20260504110509 | 18 | 167 | 24.1 | 30.6 | 0.00 | 0.30 | 0.30 | 76 | 1016.6 |
| 20260504100509 | 17 | 144 | 20.9 | 32.2 | 0.00 | 0.25 | 0.25 | 77 | 1016.9 |